Regional Weather Roundup
Issued by NWS

Home | Current Version | Previous Version | Text Only | Print | Product List | Glossary On
Versions: 1 2 3 4 5 6 7 8 9 10 11 12 13 14 15 16 17 18 19 20 21 22 23 24 25 26 27 28 29 30 31 32 33 34 35 36 37 38 39 40 41 42 43 44 45 46 47 48 49 50
000
ASUS44 KOUN 280810
RWROK

WEATHER ROUNDUP FOR OKLAHOMA
NATIONAL WEATHER SERVICE NORMAN OK
300 AM CDT MON JUL 28 2014

NOTE: "FAIR" INDICATES FEW OR NO CLOUDS BELOW 12,000 FEET WITH NO
      SIGNIFICANT WEATHER AND/OR OBSTRUCTIONS TO VISIBILITY.

OKZ001>007-009>012-014-015-017-280900-
NORTHWEST OKLAHOMA AND THE PANHANDLE

CITY           SKY/WX    TMP DP  RH WIND       PRES   REMARKS
GAGE           CLOUDY    71  59  65 NE5       30.20F
ENID/WOODRING  PTCLDY    70  63  78 N6        30.14S
$$

OKZ016-021>023-033>039-044-045-280900-
SOUTHWEST OKLAHOMA

CITY           SKY/WX    TMP DP  RH WIND       PRES   REMARKS
LAWTON/REGL    MOCLDY    79  63  57 NE12      30.09F
LAWTON/FT SILL HVY RAIN  74  67  77 E12       30.09F
FREDERICK      CLEAR     81  69  67 E18       30.07R
CLINTON        MOCLDY    76  64  66 NE14      30.18R
HOBART         CLOUDY    77  58  51 E14       30.13S
ALTUS AFB      PTCLDY    78  65  63 NE10      30.10S
$$

OKZ018>020-024>031-280900-
CENTRAL OKLAHOMA

CITY           SKY/WX    TMP DP  RH WIND       PRES   REMARKS
OKLAHOMA CITY  MOCLDY    78  64  61 NE5       30.14R
OKC/WILEY POST MOCLDY    74  66  76 N6        30.14R
OKC/TINKER AFB MOCLDY    74  65  74 NE6       30.13R
STILLWATER     MOCLDY    72  68  87 N7        30.14R
GUTHRIE        PTCLDY    72  67  84 NE5       30.14R
$$

OKZ008-013-054>072-280900-
NORTHEAST OKLAHOMA

CITY           SKY/WX    TMP DP  RH WIND       PRES   REMARKS
TULSA          PTCLDY    71  67  87 N9        30.10R
TULSA/JONES    CLEAR     76  67  73 N5        30.11R
PONCA CITY     PTCLDY    66  62  87 NE5       30.15S
BARTLESVILLE   CLEAR     70  60  70 N9        30.14R
MUSKOGEE       CLEAR     72  66  81 N5        30.10R
$$

OKZ032-040>043-046>053-073>077-280900-
SOUTH CENTRAL/SOUTHEAST OKLAHOMA

CITY           SKY/WX    TMP DP  RH WIND       PRES   REMARKS
ARDMORE/DWNTWN LGT RAIN  77  73  88 NE5       30.08R
MCALESTER      MOCLDY    78  67  68 NE5       30.09R
$$



USA.gov is the U.S. government's official web portal to all federal, state and local government web resources and services.